Regional Weather Roundup
Issued by NWS Wakefield, VA

Home | Current Version | Previous Version | Graphics & Text | Print | Product List | Glossary On
Versions: 1 2 3 4 5 6 7 8 9 10 11 12 13 14 15 16 17 18 19 20 21 22 23 24 25 26 27
000
ASUS41 KAKQ 041915
RWRAKQ

REGIONAL WEATHER ROUNDUP
NATIONAL WEATHER SERVICE WAKEFIELD VA
300 PM EDT WED MAY 04 2016

Note: "fair" indicates few or no clouds below 12,000 feet with no
significant weather and/or obstructions to visibility. * = Denotes
station may not report precipitation (e.g., rain,snow,etc.),
thunder or fog.

VAZ042-051-052>054-056-042000-
NORTHERN VIRGINIA

CITY           SKY/WX    TMP DP  RH WIND       PRES   REMARKS
WASH NATIONAL  CLOUDY    59  53  80 NE8       29.67F
DULLES         PTSUNNY   59  52  77 VRB5      29.67S
FORT BELVOIR   CLOUDY    60  52  75 CALM      29.66F
QUANTICO       PTSUNNY   62  54  74 NE7       29.66F
FREDERICKSBRG* CLOUDY    62  58  86 CALM      29.65S
STAFFORD*      CLOUDY    62  54  76 NE6       29.69F
WARRENTON      PTSUNNY   65  51  60 E9        29.64F
CULPEPER*      CLOUDY    65  56  72 E6        29.64F
MANASSAS*      CLOUDY    63  55  77 E6        29.66F
LEESBURG*      CLOUDY    63  55  77 E5        29.67S
WINCHESTER     PTSUNNY   64  54  68 E8        29.63F
FRONT ROYAL*   CLOUDY    63  55  77 E8        29.63F
LURAY*         MOCLDY    61  54  77 SE3       29.64F
$$

VAZ048-049-060>072-079>083-042000-
CENTRAL AND SOUTH CENTRAL VIRGINIA

CITY           SKY/WX    TMP DP  RH WIND       PRES   REMARKS
RICHMOND       PTSUNNY   68  56  65 CALM      29.63F
CHESTERFIELD*  MOCLDY    70  48  46 N3        29.63F
PETERSBURG*    CLOUDY    69  57  65 SE3       29.63F
HANOVER        FAIR      66  54  65 E7        29.64F
TAPPAHANNOCK*  CLOUDY    62  57  82 N5        29.66F
QUINTON*       CLOUDY    65  58  78 E5        29.64F
CHARLOTTSVILLE PTSUNNY   66  51  58 VRB3      29.62F
GORDONSVILLE*  FAIR      65  53  65 S3        29.62F
ORANGE*        FAIR      63  57  82 CALM      29.65F
LOUISA*        FAIR      64  61  88 E7        29.62F
BUMPASS*       CLOUDY    62  56  81 NE3       29.64F
FARMVILLE*     PTSUNNY   69  56  64 CALM      29.60F
CREWE*         FAIR      72  53  51 W8        29.62F
FORT PICKETT*  NOT AVBL
CHASE CITY*    MOCLDY    69  47  43 NW3       29.63F
CLARKSVILLE*   MOCLDY    70  52  52 CALM      29.63F
SOUTH HILL*    PTSUNNY   69  51  53 W6        29.68F
LAWRENCEVILLE* MOCLDY    68  58  70 CALM      29.62F
EMPORIA*       FAIR      68  59  73 NE3       29.65S
$$

VAZ088>098-042000-
SOUTHEAST VIRGINIA

CITY           SKY/WX    TMP DP  RH WIND       PRES   REMARKS
NORFOLK        CLOUDY    62  55  77 VRB7      29.63F
VIRGINIA BEACH CLOUDY    66  56  70 NW10      29.62F
NORFOLK NAVAL  CLOUDY    62  57  83 N6        29.65F
WEST POINT*    CLOUDY    62  56  82 CALM      29.66F
SALUDA*        CLOUDY    59  58  96 NW6       29.65F
NEWPORT NEWS   CLOUDY    63  58  83 NW5       29.64F
LANGLEY AFB    CLOUDY    60  57  89 N3        29.64F
FORT EUSTIS    CLOUDY    64  62  91 VRB6      29.62F
WILLIAMSBURG*  FAIR      64  61  88 NW3       29.65F
HR EXEC AP*    CLOUDY    64  57  77 CALM      29.66F
FRANKLIN*      CLOUDY    65  58  79 N6        29.64F
US460-WAKEFLD  PTSUNNY   69  59  70 VRB6      29.63F
$$

VAZ020-022-025-037-045-042000-
WEST CENTRAL AND SOUTHWEST VIRGINIA

CITY           SKY/WX    TMP DP  RH WIND       PRES   REMARKS
STAUNTON*      FAIR      66  48  52 W9        29.65F
WAYNESBORO*    FAIR      63  43  47 NW5       29.64F
HOT SPRINGS VA PTSUNNY   56  42  60 W9G17     29.67F
LYNCHBURG      FAIR      69  44  40 W7G18     29.64F
DANVILLE       FAIR      71  48  43 VRB5      29.63F
SOUTH BOSTON*  FAIR      71  46  40 W5        29.63F
MARTINSVILLE   CLOUDY    64  44  46 NW6       29.68S
ROANOKE        PTSUNNY   66  41  40 SW13G18   29.66F
BLACKSBURG     CLOUDY    60  42  52 SW6       29.72F
DUBLIN*        CLOUDY    60  42  52 W15       29.70F
MARION*        CLOUDY    57  43  59 SW7       29.73F
HILLSVILLE*    CLOUDY    56  40  55 W9G17     29.70S
RICHLANDS*     CLOUDY    56  31  38 SW5       29.71F
WISE*          PTSUNNY   57  36  44 W9        29.73F
ABINGDON*      PTSUNNY   63  42  47 SW3       29.71F
$$

MDZ021>025-VAZ099-100-042000-
SOUTHERN MARYLAND AND THE DELMARVA PENINSULA

CITY           SKY/WX    TMP DP  RH WIND       PRES   REMARKS
PATUXENT RIVER CLOUDY    57  52  83 NE9       29.66F
BAY BRIDGE APT NOT AVBL
LEONARDTOWN    CLOUDY    55  52  88 CALM      29.67F
DOVER          CLOUDY    54  54 100 N10       29.67F
GEORGETOWN     CLOUDY    54  51  90 NE14      29.67F
EASTON         CLOUDY   N/A N/A N/A NE7       29.71F HAZE
CAMBRIDGE      CLOUDY    54  52  94 NE6       29.66F
SALISBURY      CLOUDY    55  52  89 NE7       29.66F
OCEAN CITY     CLOUDY    52  50  93 NE15G22   29.66S FOG
WALLOPS ISLAND LGT RAIN  58  56  93 N7        29.65F FOG
ACCOMACK*      CLOUDY   N/A N/A N/A N7        29.64F FOG
$$

NCZ012>017-030>032-042000-
NORTH CENTRAL AND EASTERN NORTH CAROLINA

CITY           SKY/WX    TMP DP  RH WIND       PRES   REMARKS
ROANOKE RAPIDS FAIR      68  61  77 NE3       29.63S
RALEIGH        PTSUNNY   71  53  52 W7        29.64F
ELIZABETH CITY CLOUDY    68  60  75 N5        29.62F
AHOSKIE*       MOSUNNY   66  60  81 NE5       29.63F
EDENTON*       CLOUDY    68  65  88 N3        29.63F
CURRITUCK*     NOT AVBL
KILL DEVIL HLS SUNNY     69  59  71 N3        29.60F
MANTEO         PTSUNNY   69  64  84 NW5       29.61F
CAPE HATTERAS  PTSUNNY   70  65  84 VRB5      29.60F
TARBORO*       FAIR      74  61  64 N3        29.62F
GOLDSBORO      MOSUNNY   75  63  65 W6        29.59F
WASHINGTON     MOSUNNY   74  62  65 CALM      29.59F
GREENVILLE     MOSUNNY   73  61  64 NW7       29.64F
NEW BERN       MOSUNNY   77  63  61 W6        29.60F
WILMINGTON     MOSUNNY   79  57  46 SW10G21   29.57F
$$

VAZ048-042000-
ELSEWHERE

CITY           SKY/WX    TMP DP  RH WIND       PRES   REMARKS
HARRISBURG PA  CLOUDY    56  49  77 E8        29.68F
BALTIMORE      DRIZZLE   55  51  86 E8        29.68S
ANNAPOLIS      CLOUDY    55  52  89 N7        29.68F
ANDREWS AFB    CLOUDY    57  52  84 E6        29.66F
PHILADELPHIA   CLOUDY    53  46  77 NE9       29.71S
HENDERSON NC   MOSUNNY   69  52  55 NW5       29.64F
GREENSBORO     PTSUNNY   68  43  40 VRB3      29.65F
ROCKY MOUNT    MOSUNNY   71  57  61 N5        29.62F
$$

VAZ100-042000-
MARINE

STATION/POSITION TIME  TEMP    WIND        PRES    WAVE   SWELL
                       AIR SEA DIR/SP/G            HT/PER HT/PER
                 (UTC) (F)     (DEG/KT/KT) (MB)    (FT/S) (FT/S)
BRANDYWINE LGT   1800   51      40/ 12/ 17 1005.2S
CAPE MAY NJ      1800   50 57   10/  3/  5 1005.0R
LEWES DE         1800   51 55   50/ 10/ 11 1004.6F
15NM E FENWICK I 1850   50 51              1003.5F   5/ 6
OCEAN-CITY-INLET 1800   52 55   70/  5/  9 1003.8F
WACHAPREAGUE VA  1800   57 63   60/  6/  8 1003.9R
THOMAS POINT MD  1900   53 59   40/  8/  8 1006.2F
GOOSES REEF MD   1800   54 59  360/  8/ 10 1006.3F   1
COVE POINT MD    1800   54      20/  7/ 10 1005.5F
SOLOMONS ISLAND  1800   55 61   10/  5/  7   N/A
BISHOPS HEAD MD  1800   56 61  340/  7/  8 1004.1F
PINEY POINT MD   1800          360/  3/  4   N/A
POTOMAC MD       1800   55 60  350/  6/  8 1003.8F   0
CAMBRIDGE MD     1800   54 62   10/  6/  7 1004.2F
LEWISETTA VA     1800   56 63  360/  7/  9 1004.5F
RAPPAHANNOCK LGT 1800          320/ 10/ 11 1005.0R
STINGRAY PT      1800   57 62   10/  8/ 10 1004.9F   1
YORK RVR RNG VA  1800   58     350/  8/ 11 1003.7F
YORKTOWN VA      1800   59 63  320/  6/  8 1004.0F
JAMESTOWN VA     1800   59 68  330/  4/  6   N/A     0
DOMINION TERM VA 1800   60     310/  5/  6 1004.2F
KIPTOPEKE VA     1800      62  330/ 10/ 12   N/A
CHES BAY BRIDGE  1800   58 63  310/  5/  7 1004.0R
CAPE HENRY VA    1800   57     330/  4/  5   N/A
CHESAPEAKE LGHT  1800   54     350/  8/  8 1004.6
WILLOUBY STN VA  1800   60      CALM  /  1 1005.2R
CAPE HENRY BUOY  1812      57                N/A     3/ 8
CAPE CHARLES BUO 1826      58                N/A     3/ 7   3/ 7
OFFSHORE WE BUOY 1821      57                N/A     4/ 6   3/ 6
64NM E OF VA BCH 1850   55 55  360/  6/  8 1002.3F   3/ 7   3/ 7
DUCK PIER NC     1800   58      10/  5/  6 1003.0F
44100 DUCK FRF   1824      60                N/A     3/ 6
44056 DUCK FRF   1811      60                N/A     3/ 5
OREGON INLET NC  1800   63 62   30/  6/  7 1003.1F
HATTERAS NC      1800   70 69  210/  7/ 11 1003.2F
DIAMOND SHLS NC  1850   70 71  210/  6/  8 1002.5F   3/ 8   3/ 8
CAPE LOOKOUT NC  1800   69     170/  6/  8 1002.6F
$$




USA.gov is the U.S. government's official web portal to all federal, state and local government web resources and services.